2013 YF48

Japanese version
Home page
Updated on February 2, 2014

---------------------------------------------------------------------

* Profile

Discovery Date December 28, 2013
Magnitude 21.9 mag
Discoverer Mt. Lemmon Survey

* Orbital Elements

Epoch 2013 Nov. 4.0 TT = JDT 2456600.5                  MPC
M 348.75673              (2000.0)            P               Q
n   0.03474104     Peri.   34.42486     +0.62404947     -0.57046742
a   9.3019534      Node    33.14830     +0.28776018     -0.46755804
e   0.5236597      Incl.   77.56236     +0.72646840     +0.67524544
P  28.37           H   14.0           G   0.15           U   3

* Magnitudes Graph

        H = 14.0  G = 0.15

---------------------------------------------------------------------

The orbital elements are published on M.P.E.C. 2013-Y73.
The magnitudes graphs are made with Comet for Windows.

---------------------------------------------------------------------

Copyright(C) Seiichi Yoshida (comet@aerith.net). All rights reserved.